Weather History for KTLH - August, 2013

Change the Weather History Date:

Monday, August 26, 2013

  Actual Average Record
Temperature  
Mean Temperature 81 °F 82 °F  
Max Temperature 90 °F 91 °F 101 °F (1938)
Min Temperature 72 °F 72 °F 60 °F (1997)
Degree Days  
Heating Degree Days 0    
Month to date heating degree days 0  
Since 1 June heating degree days 0  
Since 1 July heating degree days 0  
Cooling Degree Days 16    
Month to date cooling degree days 461  
Year to date cooling degree days 1946  
Since 1 June cooling degree days 1484  
Growing Degree Days 31 (Base 50)    
Moisture  
Dew Point 64 °F    
Average Humidity 59    
Maximum Humidity 79    
Minimum Humidity 38    
Precipitation  
Precipitation 0.00 in 0.21 in 1.83 in (1993)
Month to date precipitation 7.52 6.40  
Year to date precipitation 52.19 42.96  
Sea Level Pressure  
Sea Level Pressure 30.16 in    
Wind  
Wind Speed 6 mph (NE)    
Max Wind Speed 13 mph    
Max Gust Speed 24 mph    
Visibility 10 miles    
Events      
T = Trace of Precipitation, MM = Missing Value Source: NWS Daily Summary

Daily Weather History Graph

Daily Weather History Graph

Search for Another Location

Airport or City:

Trip Planner

Search our weather history database for the weather conditions in past years. The results will help you decide how hot, cold, wet, or windy it might be!

Date:

Astronomy

Aug. 26, 2013 Rise Set
Actual Time 7:10 AM EDT 8:06 PM EDT
Civil Twilight 6:46 AM EDT 8:31 PM EDT
Nautical Twilight 6:16 AM EDT 9:00 PM EDT
Astronomical Twilight 5:46 AM EDT 9:30 PM EDT
Moon 11:46 PM EDT (8/26) 12:43 PM EDT (8/26)
Length of Visible Light 13h 45m
Length of Day
12h 56m
Waning Gibbous, 67% of the Moon is Illuminated
Aug 26
Waning Gibbous
Aug 28
Last Quarter
Sep 5
New
Sep 12
First Quarter
Sep 19
Full

Hourly Weather History & Observations

Time (EDT) Temp. Heat Index Dew Point Humidity Pressure Visibility Wind Dir Wind Speed Gust Speed Precip Events Conditions
12:53 AM 77.0 °F - 66.9 °F 71% 30.21 in 10.0 mi East 9.2 mph - N/A   Overcast
1:53 AM 75.9 °F - 63.0 °F 64% 30.19 in 10.0 mi ENE 5.8 mph - N/A   Partly Cloudy
2:53 AM 75.0 °F - 64.0 °F 69% 30.19 in 10.0 mi NE 3.5 mph - N/A   Overcast
3:53 AM 73.0 °F - 63.0 °F 71% 30.18 in 10.0 mi NNE 3.5 mph - N/A   Clear
4:53 AM 73.0 °F - 64.0 °F 73% 30.18 in 10.0 mi ENE 5.8 mph - N/A   Clear
5:53 AM 72.0 °F - 64.9 °F 78% 30.18 in 10.0 mi NNE 5.8 mph - N/A   Clear
6:53 AM 72.0 °F - 64.9 °F 78% 30.18 in 10.0 mi NE 4.6 mph - N/A   Clear
7:53 AM 73.0 °F - 64.9 °F 76% 30.19 in 10.0 mi ENE 4.6 mph - N/A   Clear
8:53 AM 75.0 °F - 64.0 °F 69% 30.19 in 10.0 mi ENE 9.2 mph - N/A   Clear
9:53 AM 79.0 °F - 64.9 °F 62% 30.20 in 10.0 mi East 9.2 mph - N/A   Clear
10:53 AM 82.0 °F 84.1 °F 66.0 °F 58% 30.21 in 10.0 mi ENE 8.1 mph - N/A   Partly Cloudy
11:53 AM 84.0 °F 86.3 °F 66.0 °F 55% 30.21 in 10.0 mi ENE 9.2 mph - N/A   Clear
12:20 PM 84.2 °F 86.6 °F 66.2 °F 55% 30.21 in 10.0 mi ENE 8.1 mph - N/A   Partly Cloudy
12:53 PM 86.0 °F 87.6 °F 64.9 °F 49% 30.19 in 10.0 mi East 10.4 mph - N/A   Mostly Cloudy
1:53 PM 87.1 °F 88.3 °F 64.0 °F 46% 30.18 in 10.0 mi NE 8.1 mph - N/A   Mostly Cloudy
2:53 PM 89.1 °F 90.0 °F 63.0 °F 42% 30.15 in 10.0 mi ENE 8.1 mph - N/A   Scattered Clouds
3:53 PM 89.1 °F 89.0 °F 61.0 °F 39% 30.12 in 10.0 mi NE 4.6 mph - N/A   Scattered Clouds
4:53 PM 90.0 °F 90.0 °F 61.0 °F 38% 30.11 in 10.0 mi NE 5.8 mph - N/A   Scattered Clouds
5:53 PM 89.1 °F 89.3 °F 62.1 °F 40% 30.09 in 10.0 mi North 6.9 mph - N/A   Partly Cloudy
6:53 PM 87.1 °F 87.8 °F 63.0 °F 44% 30.09 in 10.0 mi NNE 5.8 mph - N/A   Partly Cloudy
7:53 PM 82.9 °F 84.6 °F 64.9 °F 54% 30.09 in 10.0 mi NNE 8.1 mph - N/A   Clear
8:53 PM 80.1 °F 81.9 °F 64.9 °F 60% 30.11 in 10.0 mi NNE 4.6 mph - N/A   Clear
9:53 PM 79.0 °F - 66.0 °F 64% 30.12 in 10.0 mi NNE 4.6 mph - N/A   Partly Cloudy
10:53 PM 78.1 °F - 66.0 °F 66% 30.14 in 10.0 mi Calm Calm - N/A   Partly Cloudy
11:53 PM 78.1 °F - 66.9 °F 68% 30.13 in 10.0 mi ENE 4.6 mph - N/A   Partly Cloudy